< < Back
Terminal Aerodrome Forecast


Current Version              Previous Versions:   1  2  3  4  5  6  7  8  9  

Terminal Aerodrome Forecast

197
FTUS44 KBMX 281700
TAFANB
TAF
KANB 281737Z 2818/0118 10007KT P6SM BKN130
     FM282300 10007KT P6SM BKN050
     FM010300 09006KT P6SM BKN025
     FM010600 09005KT P6SM OVC015
     FM010900 07005KT 4SM -DZ BR OVC007=



Latest METAR

750
SAUS70 KWBC 012100 RRT
MTRANB
METAR KANB 012053Z AUTO 03005KT 10SM OVC018 13/07 A3037 RMK AO2 SLP287
T01330072 55017


USA.gov is the U.S. government's official web portal to all federal, state and local government web resources and services.